Location: La Oliva
(42.2466°N, 2.9955°E)
Time: 08:00:57
(UTC+00:00)

Cosmos 2237 Rocket - Pass Details

Date: 22 April 2021
Orbit: 836 x 849 km, 71.0° (Epoch: 07 May)

Event Time Altitude Azimuth Distance (km) Brightness Sun altitude
Rises 20:19:28 0° 334° (NNW) 3,400 6.5 -17.6°
Reaches altitude 10° 20:21:55 10° 332° (NNW) 2,460 5.6 -17.9°
Maximum altitude 20:27:32 74° 249° (WSW) 872 2.3 -18.8°
Enters shadow 20:30:45 26° 169° (S) 1,580 3.2 -19.2°
